Dewpoint
25 26 29 29 29 28 25 23 21 22 23 27 29 31 32 33 30 28 27 28 29 30 30 30 31 31 32 33 33 34 36 39 39 40 42 44 44 45 44 44 44 44 43 42
24 23 26 26 28 29 28 26 24 23 25 28 29 33 33 31 28 27 28 29 30 30 30 30 31 32 33 34 34 35 34 36 39 39 40 42 44 44 44 43 42 42 41 41
24 22 22 20 22 26 29 30 27 23 27 30 31 33 32 28 27 28 29 30 30 30 30 31 31 33 33 35 35 36 36 37 39 39 40 41 42 43 43 43 42 41 41 40
24 22 18 21 23 25 25 29 30 30 30 32 32 31 27 28 28 29 30 30 30 30 31 32 32 33 34 35 35 36 37 38 39 39 39 41 41 42 42 42 42 41 41 40
23 20 20 22 25 26 25 25 30 29 28 31 29 27 27 28 29 30 30 30 30 31 31 32 33 33 33 34 35 35 35 36 37 38 38 40 41 41 42 42 41 41 41 40
23 19 14 22 26 29 29 19 28 28 28 29 29 29 30 29 30 30 31 31 30 31 30 31 32 30 32 33 33 34 34 35 36 38 38 39 41 42 42 41 41 41 40 40
23 22 22 24 25 28 20 19 27 27 27 28 28 27 28 30 30 31 30 30 30 30 29 31 29 30 29 29 30 31 34 35 35 37 38 38 40 41 41 40 39 39 39 38
22 20 14 27 28 23 25 27 28 28 28 28 28 29 29 28 26 26 27 26 26 26 26 28 26 28 26 26 28 30 30 33 35 37 37 38 38 40 39 39 39 38 37 37
23 20 25 28 28 29 28 28 28 29 29 29 28 28 27 23 23 23 24 24 24 24 25 25 24 25 24 24 26 27 27 29 31 31 34 37 37 38 38 37 37 37 36 36
25 26 27 28 29 29 29 29 30 30 29 29 26 25 22 22 22 22 22 22 23 24 23 22 22 24 24 25 26 26 26 26 27 29 32 33 36 36 37 36 36 36 35 35
26 27 27 28 29 29 29 29 28 28 28 26 26 23 22 21 21 21 21 22 24 24 23 22 23 23 24 25 25 25 25 25 26 26 27 31 33 36 36 37 37 36 36 36
22 27 27 27 28 29 29 26 25 24 24 24 25 22 22 20 19 20 19 20 20 19 20 22 24 24 24 25 25 26 26 26 26 26 26 27 30 32 36 38 38 39 39 37
26 26 26 29 30 30 27 24 24 24 25 22 20 21 20 20 20 18 16 16 15 16 18 19 21 23 24 24 26 26 26 26 26 27 27 27 27 29 32 36 38 39 39 39
27 28 27 29 27 29 27 24 24 22 20 19 19 20 21 20 18 16 14 14 16 16 17 18 20 20 21 24 26 26 26 27 27 27 27 27 28 28 31 33 33 34 38 39
28 26 20 26 25 23 21 19 16 15 15 16 19 19 19 18 17 17 17 17 17 17 18 20 20 20 21 24 26 25 25 26 26 27 27 28 28 27 29 32 33 34 35 36
22 21 22 20 19 17 16 15 15 14 16 16 16 16 16 18 18 18 18 19 18 15 17 19 20 21 23 25 25 25 25 26 26 26 27 28 26 26 27 28 32 33 33 33
21 18 18 17 17 14 13 15 16 17 17 16 16 16 17 17 17 17 15 16 17 17 18 20 21 22 24 26 25 26 26 26 26 27 27 28 24 25 27 28 29 31 32 33
16 13 14 15 15 16 16 18 19 20 19 19 20 20 20 20 19 19 19 19 19 19 19 22 23 23 25 26 26 26 26 24 25 26 28 26 24 25 26 28 30 30 32 33
16 16 17 18 19 19 20 20 20 20 20 19 20 19 20 20 20 20 20 20 19 19 19 20 22 24 25 26 26 26 25 26 26 27 27 25 24 24 25 27 29 30 31 32
18 18 19 19 19 19 18 17 17 16 16 17 17 17 18 18 18 19 19 19 20 20 21 22 24 25 26 26 25 26 26 26 25 25 25 25 26 26 28 27 26 27 29 31
18 17 17 17 16 17 17 17 17 16 17 18 18 18 19 19 20 20 20 19 19 20 22 24 24 26 25 24 26 25 25 27 26 26 26 26 26 26 24 24 25 26 28 31
16 16 15 16 17 17 18 18 18 18 18 18 19 19 19 19 19 21 20 20 21 22 24 25 25 26 27 27 26 29 28 26 25 25 25 25 24 24 24 24 26 27 28 30
16 17 17 17 18 18 17 17 16 16 17 18 19 18 19 19 20 19 18 19 22 23 25 24 24 25 25 25 28 28 25 23 23 23 24 25 25 25 26 26 28 29 30 30
16 17 17 18 16 17 15 15 16 16 17 17 17 19 18 17 17 17 19 21 21 22 23 23 24 23 24 28 26 24 23 23 23 24 24 25 25 26 27 28 28 29 29 30
16 16 17 16 14 13 14 14 14 13 13 13 13 13 15 16 18 20 20 20 20 21 21 22 24 25 26 26 24 23 23 22 23 25 24 24 24 25 26 27 27 28 28 29
16 15 15 13 12 12 13 14 13 12 13 12 12 13 16 17 17 18 18 19 20 20 21 21 24 25 26 24 24 24 23 23 23 23 22 22 22 23 23 24 25 26 27 28
14 15 12 11 11 12 13 13 12 12 12 12 14 15 15 16 16 16 17 17 18 19 21 23 25 25 25 24 23 23 22 22 21 22 21 21 21 21 21 22 23 24 25 26
Wind_Speed
6 4 1 3 6 8 7 5 6 6 8 13 9 9 9 8 7 7 10 12 13 14 14 14 14 13 14 14 14 14 13 12 12 12 10 8 6 4 2 4 5 7 9 10
3 6 4 6 7 4 7 5 9 7 9 6 9 9 7 5 5 6 8 9 11 11 10 12 14 15 15 15 15 14 14 14 13 13 10 9 8 7 5 5 6 6 7 9
2 3 1 3 7 6 3 4 2 2 3 8 8 9 8 6 5 4 3 6 9 11 13 15 16 14 15 16 15 13 12 12 11 12 11 9 10 9 10 11 9 10 9 10
2 2 2 2 2 3 2 3 2 1 3 2 6 7 7 5 4 1 4 6 6 7 7 8 10 12 14 13 13 13 13 13 12 12 12 10 10 14 14 13 14 14 14 14
1 1 1 1 1 0 1 1 2 2 4 6 9 8 4 3 2 3 5 5 6 6 7 8 8 10 12 13 14 14 13 13 14 14 14 12 12 13 14 14 15 15 14 15
1 2 3 3 3 0 1 3 4 3 5 6 7 6 3 6 1 2 4 5 6 6 7 7 8 10 10 10 12 12 15 18 18 18 15 14 13 11 13 14 14 13 13 14
2 2 1 2 2 1 2 3 7 7 6 7 5 2 3 1 2 4 5 6 7 7 9 8 10 11 12 12 11 13 14 16 17 15 17 17 15 11 10 13 11 12 12 9
1 2 1 3 2 3 2 2 4 5 5 5 2 1 1 2 3 4 5 6 6 7 8 7 9 9 11 11 12 13 13 15 16 16 15 14 15 13 10 11 12 13 12 11
4 0 2 2 2 0 1 1 4 4 3 2 2 2 2 4 4 5 6 7 8 9 10 9 8 9 12 12 13 14 14 14 15 17 17 14 13 13 10 11 13 14 13 13
3 3 7 5 3 3 3 2 3 3 2 2 3 3 5 6 7 8 9 10 11 11 12 13 11 11 12 13 12 14 15 14 15 14 16 16 12 11 10 11 13 13 15 16
6 6 3 7 8 5 4 3 3 2 1 3 3 4 7 8 10 10 10 10 10 12 13 15 13 14 13 13 13 14 14 14 14 13 14 16 15 13 12 14 15 15 17 17
5 4 1 2 1 7 7 4 2 2 3 2 4 7 9 12 10 10 11 12 13 13 14 14 14 15 14 12 11 13 15 14 14 16 14 13 15 17 14 18 21 21 19 17
2 3 2 3 4 4 5 4 3 3 4 6 7 9 10 12 12 14 15 14 13 15 15 15 15 16 15 14 13 13 15 16 16 17 17 16 15 16 18 15 16 22 21 21
4 7 2 4 2 6 3 3 2 3 5 9 9 8 9 12 14 15 16 15 16 17 17 16 16 17 14 12 13 14 16 17 15 16 16 15 14 16 15 16 17 13 17 20
7 3 1 6 5 4 3 3 6 8 8 7 6 9 10 13 16 17 18 17 17 18 18 16 16 18 14 12 12 13 14 13 14 15 15 15 14 17 16 16 16 15 12 12
8 5 5 4 5 5 5 7 10 11 8 9 9 10 11 13 16 18 19 18 17 19 17 16 17 17 14 13 14 16 15 17 16 16 15 12 13 15 17 16 16 14 14 15
9 5 5 5 7 7 9 10 10 12 12 12 12 11 12 14 16 18 19 17 17 20 19 18 20 17 14 13 14 15 14 14 17 17 15 13 14 15 16 17 15 16 15 13
3 3 3 3 4 7 11 11 11 13 15 14 11 12 14 15 18 19 20 18 18 19 20 19 18 16 14 14 14 13 14 14 14 16 14 12 15 15 16 17 15 15 15 13
4 3 2 4 5 9 11 14 14 14 14 14 13 16 16 17 19 19 17 17 18 19 21 17 14 14 15 14 14 12 14 16 16 15 15 16 17 16 16 16 14 14 16 14
3 1 3 6 6 7 12 13 13 16 16 15 17 19 21 20 19 19 17 19 19 19 21 20 18 14 13 14 16 13 15 16 16 16 16 16 16 16 15 14 17 16 15 14
1 2 4 6 9 9 8 10 12 15 16 15 17 19 19 19 17 18 17 18 19 17 19 20 16 15 13 13 14 16 17 16 16 16 16 15 14 14 17 17 16 15 14 14
1 3 5 7 8 11 10 12 11 12 14 15 15 16 17 18 17 15 15 17 17 19 16 15 14 15 15 19 17 16 12 14 13 12 13 14 16 16 15 15 15 14 14 13
2 3 5 6 8 10 10 9 12 13 14 14 15 15 15 16 15 16 18 15 17 18 18 16 17 21 21 18 15 7 10 13 14 14 13 13 13 14 15 15 14 14 13 13
2 3 4 5 6 7 11 12 13 13 13 14 13 13 14 16 16 13 15 19 21 21 19 18 19 21 20 12 5 9 10 11 12 11 12 12 12 12 13 11 9 9 8 9
3 2 3 7 7 8 10 11 12 13 15 15 15 14 14 13 14 17 17 17 20 19 16 19 20 18 10 8 8 9 9 10 9 9 8 10 10 10 8 6 6 6 5 4
3 3 3 4 5 7 8 10 11 11 12 14 14 15 15 15 15 16 16 17 16 17 15 15 13 12 8 7 8 7 7 7 7 7 8 8 7 7 6 7 6 6 5 5
2 3 3 4 5 6 8 10 9 10 12 11 16 16 15 16 16 16 16 16 16 16 16 13 10 9 8 7 7 6 6 6 6 7 6 6 6 6 6 6 6 5 5 4
Wind_Direction
45 351 326 35 32 33 62 34 57 120 132 164 162 144 137 133 114 80 54 42 35 24 14 10 7 6 7 4 1 357 351 348 347 335 322 313 304 293 255 199 184 176 167 165
50 354 23 67 42 40 47 33 76 113 108 155 146 145 147 124 94 68 45 25 13 11 10 7 2 358 354 353 350 348 343 342 339 332 318 288 276 266 256 233 208 190 190 182
121 9 38 75 13 16 10 41 27 70 83 160 167 167 157 143 125 97 35 3 0 358 354 351 351 351 347 340 340 342 335 332 329 327 321 291 253 240 233 222 206 210 205 199
128 200 164 89 346 302 298 347 344 84 71 157 168 133 137 140 149 113 351 341 338 335 335 337 335 336 331 333 337 337 332 330 329 321 314 306 263 232 224 218 209 203 202 202
129 82 112 104 141 129 295 221 323 255 151 137 138 144 186 172 20 343 332 329 326 332 333 330 329 332 324 324 327 326 328 325 327 323 311 304 281 251 226 210 208 210 206 199
154 215 195 110 159 199 202 226 177 213 174 172 169 223 140 154 349 325 330 332 330 326 324 330 337 331 322 323 321 319 322 318 318 322 313 305 295 270 240 221 212 204 201 199
168 255 259 175 193 269 223 97 166 189 187 177 211 359 91 16 332 327 315 315 324 325 326 326 332 330 323 323 320 321 315 315 312 312 316 309 301 284 250 236 223 209 210 206
185 217 267 155 165 215 57 123 173 189 184 191 168 208 239 318 311 308 310 319 312 309 310 308 319 314 312 310 318 315 314 315 318 316 318 312 304 293 263 239 225 221 213 212
230 8 123 171 260 9 175 192 197 203 165 192 232 242 301 297 298 289 299 299 302 298 301 305 316 312 311 318 320 318 312 313 311 313 312 316 308 294 269 243 227 216 209 214
275 189 226 226 221 224 210 212 153 123 171 208 274 296 294 295 295 297 296 299 298 300 302 301 303 299 296 307 311 312 308 310 314 317 316 311 308 291 267 240 224 222 211 213
254 252 245 233 222 208 178 150 144 153 210 250 261 277 282 285 281 280 288 297 294 289 291 289 295 297 301 301 303 304 309 311 311 311 310 309 306 295 279 258 238 222 222 217
254 156 194 148 217 191 189 195 189 228 248 259 269 282 281 284 299 303 301 297 295 291 289 290 292 292 296 299 293 296 300 303 306 306 305 301 301 305 290 267 262 246 233 220
208 158 166 95 114 156 182 180 202 243 267 288 277 273 289 294 294 295 294 292 289 292 289 289 286 283 287 292 289 290 292 295 297 300 300 300 302 301 302 299 268 252 243 229
177 143 172 195 210 176 174 197 243 270 271 267 284 291 278 278 289 291 290 293 294 292 289 289 290 288 293 292 284 289 293 293 288 287 292 293 292 291 292 295 288 285 248 243
176 201 107 134 139 162 191 228 257 264 269 274 264 271 283 287 288 291 291 291 290 287 282 283 287 290 302 296 286 289 295 287 284 283 284 281 294 295 289 290 282 275 266 249
163 162 165 187 187 208 235 252 261 274 275 275 279 284 289 288 290 291 291 291 285 283 282 282 283 286 290 285 288 294 294 288 285 282 283 275 285 286 288 288 286 273 262 254
158 198 212 235 228 237 250 262 262 269 273 272 274 283 289 293 295 295 299 299 288 279 276 274 274 283 279 275 285 293 289 288 287 285 278 272 287 281 282 284 286 285 268 253
162 130 157 213 251 269 276 271 269 266 261 266 273 282 285 289 289 292 294 301 298 290 278 270 269 273 274 279 294 291 285 286 282 281 277 281 280 282 280 278 279 282 280 264
162 176 234 276 286 282 283 286 284 277 278 278 283 281 282 283 287 290 294 295 295 295 292 290 272 272 276 286 292 283 280 281 280 279 274 276 278 274 272 274 277 279 283 265
152 287 321 313 308 294 296 295 295 292 294 296 293 291 293 298 298 298 302 295 289 285 291 291 285 279 275 291 291 282 278 276 279 278 272 272 270 272 269 281 281 275 273 270
133 3 341 334 325 321 316 320 313 308 311 307 302 301 306 305 303 302 302 302 304 307 307 301 286 283 284 287 283 276 270 266 272 273 273 270 275 275 278 278 274 271 268 268
62 356 349 343 329 322 339 332 326 320 319 316 319 320 316 313 315 310 300 292 302 312 314 306 296 290 289 288 286 277 278 287 289 289 281 275 275 275 273 272 268 268 265 262
57 359 350 349 337 326 329 337 333 329 325 328 326 324 323 317 313 313 311 318 313 312 316 308 302 302 300 298 287 282 291 290 289 285 280 276 275 276 274 271 269 268 262 259
51 16 360 349 340 347 341 337 332 329 330 331 329 328 326 322 318 313 314 313 315 314 310 308 308 305 299 288 298 299 291 290 289 288 284 286 286 288 283 277 276 278 278 268
49 23 8 1 358 346 334 335 334 339 340 338 334 333 328 323 313 317 319 317 318 319 313 311 313 313 315 307 298 294 292 294 296 302 304 298 300 302 310 317 314 305 312 324
73 48 12 354 351 339 338 338 336 335 339 336 332 331 329 331 328 325 324 322 320 319 320 316 312 313 314 306 300 301 301 302 314 311 318 314 320 329 339 343 339 343 355 16
74 37 4 358 359 345 334 331 330 332 334 330 318 328 334 335 330 331 328 325 325 324 324 321 320 327 327 325 327 326 327 324 327 337 334 335 338 342 345 345 342 346 8 31